Elefsis, Greece

7:07 PM EEST on July 24, 2017 (GMT +0300)
Elefsis Air Base

Weather History for LGEL - April, 2013

Change the Weather History Date:

Tuesday, April 2, 2013

  Actual Average Record
Temperature  
Mean Temperature 60 °F -  
Max Temperature 69 °F 67 °F 75 °F (2009)
Min Temperature 51 °F 50 °F 44 °F (1997)
Degree Days  
Heating Degree Days 5    
Growing Degree Days 10 (Base 50)    
Moisture  
Dew Point 46 °F    
Average Humidity 56    
Maximum Humidity 72    
Minimum Humidity 40    
Precipitation  
Precipitation 0.00 in - - ()
Sea Level Pressure  
Sea Level Pressure 29.74 in    
Wind  
Wind Speed 4 mph ()    
Max Wind Speed 14 mph    
Max Gust Speed -    
Visibility 6.2 miles    
Events      
Averages and records for this station are not official NWS values.
T = Trace of Precipitation, MM = Missing Value Source: Averaged Metar Reports

Daily Weather History Graph

Daily Weather History Graph

Search for Another Location

Airport or City:

Trip Planner

Search our weather history database for the weather conditions in past years. The results will help you decide how hot, cold, wet, or windy it might be!

Date:

Astronomy

Apr. 02, 2013 Rise Set
Actual Time 7:09 AM EEST 7:49 PM EEST
Civil Twilight 6:42 AM EEST 8:16 PM EEST
Nautical Twilight 6:11 AM EEST 8:47 PM EEST
Astronomical Twilight 5:39 AM EEST 9:20 PM EEST
Moon 1:33 AM EEST (4/2) 11:43 AM EEST (4/2)
Length of Visible Light 13h 33m
Length of Day
12h 40m
Waning Gibbous, 59% of the Moon is Illuminated
Apr 2
Waning Gibbous
Apr 3
Last Quarter
Apr 10
New
Apr 18
First Quarter
Apr 25
Full

Hourly Weather History & Observations

Time (EEST) Temp. Dew Point Humidity Pressure Visibility Wind Dir Wind Speed Gust Speed Precip Events Conditions
12:50 AM 57.2 °F 42.8 °F 59% 29.86 in - Calm Calm - N/A   Clear
1:50 AM 55.4 °F 42.8 °F 63% 29.86 in - NE 4.6 mph - N/A   Clear
2:50 AM 57.2 °F 42.8 °F 59% 29.83 in - Calm Calm - N/A   Clear
3:50 AM 53.6 °F 44.6 °F 72% 29.83 in - Calm Calm - N/A   Clear
4:50 AM 55.4 °F 44.6 °F 67% 29.83 in - Calm Calm - N/A   Clear
5:50 AM 53.6 °F 42.8 °F 67% 29.80 in - Calm Calm - N/A   Clear
6:20 AM 51.8 °F 42.8 °F 71% 29.80 in - Calm Calm - N/A   Clear
6:50 AM 51.8 °F 42.8 °F 71% 29.80 in - NNW 4.6 mph - N/A   Clear
7:20 AM 51.8 °F 42.8 °F 71% 29.80 in - North 5.8 mph - N/A   Clear
7:50 AM 53.6 °F 44.6 °F 72% 29.86 in - Calm Calm - N/A   Clear
8:20 AM 55.4 °F 44.6 °F 67% 29.86 in - Calm Calm - N/A   Clear
8:50 AM 57.2 °F 44.6 °F 63% 29.86 in - Calm Calm - N/A   Clear
9:20 AM 59.0 °F 46.4 °F 63% 29.86 in - Calm Calm - N/A   Clear
9:50 AM 60.8 °F 46.4 °F 59% 29.83 in - Calm Calm - N/A   Clear
10:20 AM 62.6 °F 46.4 °F 55% 29.83 in - Calm Calm - N/A   Clear
10:50 AM 64.4 °F 48.2 °F 56% 29.80 in 6.2 mi Calm Calm - N/A   Mostly Cloudy
11:20 AM 66.2 °F 46.4 °F 49% 29.80 in 6.2 mi Calm Calm - N/A   Mostly Cloudy
11:50 AM 66.2 °F 46.4 °F 49% 29.80 in 6.2 mi South 6.9 mph - N/A   Mostly Cloudy
12:20 PM 66.2 °F 46.4 °F 49% 29.80 in 6.2 mi South 4.6 mph - N/A   Mostly Cloudy
12:50 PM 69.8 °F 44.6 °F 40% 29.80 in 6.2 mi South 11.5 mph - N/A   Scattered Clouds
1:20 PM 69.8 °F 44.6 °F 40% 29.80 in 6.2 mi South 11.5 mph - N/A   Scattered Clouds
1:50 PM 66.2 °F 46.4 °F 49% 29.77 in 6.2 mi SSE 11.5 mph - N/A   Scattered Clouds
2:20 PM 69.8 °F 46.4 °F 43% 29.77 in 6.2 mi SSE 13.8 mph - N/A   Scattered Clouds
2:50 PM 68.0 °F 44.6 °F 43% 29.74 in 6.2 mi South 13.8 mph - N/A   Scattered Clouds
3:20 PM 66.2 °F 44.6 °F 46% 29.74 in 6.2 mi South 13.8 mph - N/A   Scattered Clouds
3:50 PM 68.0 °F 48.2 °F 49% 29.71 in 6.2 mi South 11.5 mph - N/A   Scattered Clouds
4:20 PM 69.8 °F 48.2 °F 46% 29.71 in 6.2 mi SSE 11.5 mph - N/A   Scattered Clouds
4:50 PM 68.0 °F 50.0 °F 52% 29.68 in 6.2 mi South 11.5 mph - N/A   Scattered Clouds
5:20 PM 66.2 °F 51.8 °F 60% 29.68 in 6.2 mi SSW 11.5 mph - N/A   Scattered Clouds
5:50 PM 66.2 °F 53.6 °F 64% 29.68 in 6.2 mi South 11.5 mph - N/A   Scattered Clouds
6:20 PM 66.2 °F 51.8 °F 60% 29.68 in 6.2 mi South 9.2 mph - N/A   Scattered Clouds
6:50 PM 66.2 °F 48.2 °F 52% 29.62 in - SSE 9.2 mph - N/A   Clear
7:20 PM 66.2 °F 48.2 °F 52% 29.62 in - SSE 9.2 mph - N/A   Clear
7:50 PM 64.4 °F 46.4 °F 52% 29.62 in - SSE 6.9 mph - N/A   Clear
8:20 PM 64.4 °F 46.4 °F 52% 29.62 in - SSE 6.9 mph - N/A   Clear
8:50 PM 66.2 °F 44.6 °F 46% 29.59 in - SE 10.4 mph - N/A   Clear
9:20 PM 66.2 °F 44.6 °F 46% 29.59 in - SE 11.5 mph - N/A   Clear
9:50 PM 64.4 °F 46.4 °F 52% 29.59 in - SE 8.1 mph - N/A   Clear
10:50 PM 64.4 °F 50.0 °F 59% 29.59 in - Calm Calm - N/A   Clear
11:20 PM 64.4 °F 50.0 °F 59% 29.59 in - Calm Calm - N/A   Clear
11:50 PM 62.6 °F 48.2 °F 59% 29.59 in - Calm Calm - N/A   Clear